| time (UTC) | temp F | wind direction | speed MPH | gust MPH | rain 1hr in | rain 24hr in | rain mn in | humidity % | barometer mb |
| 20260507063643 | 46 | 205 | 0.0 | 0.0 | 0.00 | 0.00 | 0.00 | 42 | 1023.5 |
| 20260507063141 | 46 | 205 | 0.0 | 0.0 | 0.00 | 0.00 | 0.00 | 42 | 1023.5 |
| 20260507062638 | 46 | 205 | 0.0 | 0.0 | 0.00 | 0.00 | 0.00 | 42 | 1023.4 |
| 20260507062137 | 46 | 205 | 0.0 | 0.0 | 0.00 | 0.00 | 0.00 | 42 | 1023.4 |
| 20260507061634 | 46 | 205 | 0.0 | 0.0 | 0.00 | 0.00 | 0.00 | 43 | 1023.3 |
| 20260507061213 | 47 | 205 | 0.0 | 0.0 | 0.00 | 0.00 | 0.00 | 42 | 1023.4 |
| 20260507060649 | 48 | 205 | 0.0 | 0.0 | 0.00 | 0.00 | 0.00 | 41 | 1023.4 |
| 20260507060147 | 48 | 205 | 0.0 | 0.0 | 0.00 | 0.00 | 0.00 | 39 | 1023.3 |
| 20260507055647 | 49 | 205 | 0.0 | 1.0 | 0.00 | 0.00 | 0.00 | 38 | 1023.3 |
| 20260507055148 | 48 | 205 | 0.0 | 1.0 | 0.00 | 0.00 | 0.00 | 40 | 1023.2 |
| 20260507054706 | 48 | 205 | 0.0 | 0.0 | 0.00 | 0.00 | 0.00 | 40 | 1023.2 |
| 20260507054142 | 48 | 205 | 0.0 | 0.0 | 0.00 | 0.00 | 0.00 | 42 | 1023.2 |
| 20260507053639 | 48 | 205 | 0.0 | 1.0 | 0.00 | 0.00 | 0.00 | 42 | 1023.1 |
| 20260507053137 | 48 | 205 | 0.0 | 1.0 | 0.00 | 0.00 | 0.00 | 42 | 1023.2 |
| 20260507052655 | 48 | 184 | 0.0 | 0.0 | 0.00 | 0.00 | 0.00 | 42 | 1023.1 |
| 20260507052152 | 48 | 184 | 0.0 | 0.0 | 0.00 | 0.00 | 0.00 | 42 | 1023.1 |
| 20260507051649 | 48 | 184 | 0.0 | 0.0 | 0.00 | 0.00 | 0.00 | 42 | 1023.3 |
| 20260507051146 | 48 | 184 | 0.0 | 0.0 | 0.00 | 0.00 | 0.00 | 43 | 1023.2 |
| 20260507050644 | 48 | 184 | 0.0 | 0.0 | 0.00 | 0.00 | 0.00 | 43 | 1023.2 |
| 20260507050141 | 48 | 184 | 0.0 | 0.0 | 0.00 | 0.00 | 0.00 | 43 | 1023.1 |
| 20260507045639 | 48 | 184 | 0.0 | 1.0 | 0.00 | 0.00 | 0.00 | 43 | 1023.1 |
| 20260507045136 | 47 | 184 | 0.0 | 1.0 | 0.00 | 0.00 | 0.00 | 44 | 1023.1 |
| 20260507044634 | 47 | 222 | 0.0 | 1.0 | 0.00 | 0.00 | 0.00 | 43 | 1023.2 |
| 20260507044213 | 47 | 222 | 0.0 | 1.0 | 0.00 | 0.00 | 0.00 | 43 | 1023.2 |
| 20260507043649 | 47 | 191 | 0.0 | 0.0 | 0.00 | 0.00 | 0.00 | 43 | 1023.2 |
| 20260507043207 | 47 | 191 | 0.0 | 0.0 | 0.00 | 0.00 | 0.00 | 43 | 1023.2 |
| 20260507042148 | 47 | 240 | 0.0 | 1.0 | 0.00 | 0.00 | 0.00 | 43 | 1023.1 |
| 20260507041650 | 48 | 245 | 0.0 | 1.0 | 0.00 | 0.00 | 0.00 | 43 | 1023.1 |
| 20260507041148 | 48 | 245 | 0.0 | 1.0 | 0.00 | 0.00 | 0.00 | 43 | 1023.0 |
| 20260507040645 | 48 | 342 | 0.0 | 0.0 | 0.00 | 0.00 | 0.00 | 43 | 1022.9 |
| 20260507040203 | 48 | 342 | 0.0 | 0.0 | 0.00 | 0.00 | 0.00 | 43 | 1022.9 |
| 20260507035640 | 48 | 342 | 0.0 | 0.0 | 0.00 | 0.00 | 0.00 | 43 | 1022.9 |
| 20260507035138 | 48 | 342 | 0.0 | 0.0 | 0.00 | 0.00 | 0.00 | 43 | 1022.9 |
| 20260507034636 | 48 | 342 | 0.0 | 0.0 | 0.00 | 0.00 | 0.00 | 44 | 1022.8 |
| 20260507034154 | 48 | 342 | 0.0 | 0.0 | 0.00 | 0.00 | 0.00 | 43 | 1022.7 |
| 20260507033652 | 48 | 342 | 0.0 | 0.0 | 0.00 | 0.00 | 0.00 | 43 | 1022.7 |
| 20260507033150 | 48 | 342 | 0.0 | 0.0 | 0.00 | 0.00 | 0.00 | 44 | 1022.6 |
| 20260507032648 | 48 | 342 | 0.0 | 0.0 | 0.00 | 0.00 | 0.00 | 44 | 1022.7 |
| 20260507032146 | 49 | 342 | 0.0 | 1.0 | 0.00 | 0.00 | 0.00 | 43 | 1022.6 |
| 20260507031644 | 49 | 342 | 0.0 | 1.0 | 0.00 | 0.00 | 0.00 | 43 | 1022.6 |
| 20260507031141 | 49 | 341 | 0.0 | 0.0 | 0.00 | 0.00 | 0.00 | 42 | 1022.4 |
| 20260507030639 | 50 | 341 | 0.0 | 0.0 | 0.00 | 0.00 | 0.00 | 42 | 1022.4 |
| 20260507030141 | 50 | 341 | 0.0 | 1.0 | 0.00 | 0.00 | 0.00 | 41 | 1022.4 |
| 20260507025640 | 51 | 341 | 0.0 | 1.0 | 0.00 | 0.00 | 0.00 | 40 | 1022.4 |
| 20260507025138 | 52 | 341 | 0.0 | 1.0 | 0.00 | 0.00 | 0.00 | 39 | 1022.3 |
| 20260507024636 | 52 | 342 | 0.0 | 3.0 | 0.00 | 0.00 | 0.00 | 39 | 1022.2 |
| 20260507024214 | 52 | 51 | 1.0 | 3.0 | 0.00 | 0.00 | 0.00 | 39 | 1022.2 |
| 20260507023711 | 52 | 1 | 0.0 | 1.0 | 0.00 | 0.00 | 0.00 | 38 | 1022.1 |
| 20260507023146 | 53 | 1 | 0.0 | 3.0 | 0.00 | 0.00 | 0.00 | 37 | 1022.1 |
| 20260507022644 | 53 | 3 | 0.0 | 3.0 | 0.00 | 0.00 | 0.00 | 36 | 1021.9 |
| 20260507022142 | 53 | 20 | 0.0 | 2.0 | 0.00 | 0.00 | 0.00 | 35 | 1021.9 |
| 20260507021641 | 54 | 63 | 0.0 | 3.0 | 0.00 | 0.00 | 0.00 | 34 | 1021.9 |
| 20260507021139 | 54 | 51 | 1.0 | 5.0 | 0.00 | 0.00 | 0.00 | 34 | 1021.8 |
| 20260507020637 | 54 | 65 | 2.0 | 5.0 | 0.00 | 0.00 | 0.00 | 34 | 1021.9 |
| 20260507020215 | 54 | 63 | 2.0 | 5.0 | 0.00 | 0.00 | 0.00 | 34 | 1021.7 |
| 20260507015654 | 55 | 24 | 3.0 | 5.0 | 0.00 | 0.00 | 0.00 | 34 | 1021.7 |
| 20260507015152 | 55 | 65 | 2.0 | 6.0 | 0.00 | 0.00 | 0.00 | 34 | 1021.8 |
| 20260507014649 | 55 | 54 | 2.0 | 6.0 | 0.00 | 0.00 | 0.00 | 33 | 1021.7 |
| 20260507014149 | 55 | 41 | 1.0 | 4.0 | 0.00 | 0.00 | 0.00 | 33 | 1021.8 |
| 20260507013646 | 55 | 46 | 1.0 | 6.0 | 0.00 | 0.00 | 0.00 | 32 | 1021.7 |
| 20260507013148 | 55 | 63 | 2.0 | 6.0 | 0.00 | 0.00 | 0.00 | 32 | 1021.7 |
| 20260507012645 | 55 | 59 | 2.0 | 7.0 | 0.00 | 0.00 | 0.00 | 31 | 1021.7 |
| 20260507012143 | 55 | 16 | 2.0 | 6.0 | 0.00 | 0.00 | 0.00 | 29 | 1021.7 |
| 20260507011641 | 55 | 38 | 2.0 | 5.0 | 0.00 | 0.00 | 0.00 | 28 | 1021.7 |
| 20260507011138 | 55 | 50 | 2.0 | 3.0 | 0.00 | 0.00 | 0.00 | 27 | 1021.7 |
| 20260507010657 | 55 | 49 | 1.0 | 5.0 | 0.00 | 0.00 | 0.00 | 26 | 1021.7 |
| 20260507010154 | 56 | 4 | 3.0 | 6.0 | 0.00 | 0.00 | 0.00 | 26 | 1021.7 |
| 20260507005651 | 56 | 9 | 2.0 | 6.0 | 0.00 | 0.00 | 0.00 | 29 | 1021.5 |
| 20260507005149 | 56 | 350 | 3.0 | 5.0 | 0.00 | 0.00 | 0.00 | 28 | 1021.7 |
| 20260507004648 | 56 | 32 | 3.0 | 6.0 | 0.00 | 0.00 | 0.00 | 26 | 1021.6 |
| 20260507004145 | 56 | 36 | 3.0 | 6.0 | 0.00 | 0.00 | 0.00 | 28 | 1021.7 |
| 20260507003643 | 56 | 45 | 2.0 | 7.0 | 0.00 | 0.00 | 0.00 | 31 | 1021.5 |
| 20260507003141 | 56 | 72 | 2.0 | 7.0 | 0.00 | 0.00 | 0.00 | 32 | 1021.5 |
| 20260507002637 | 56 | 43 | 3.0 | 5.0 | 0.00 | 0.00 | 0.00 | 33 | 1021.6 |
| 20260507002155 | 56 | 44 | 3.0 | 7.0 | 0.00 | 0.00 | 0.00 | 34 | 1021.5 |
| 20260507001713 | 56 | 58 | 4.0 | 7.0 | 0.00 | 0.00 | 0.00 | 34 | 1021.6 |
| 20260507001209 | 56 | 35 | 2.0 | 8.0 | 0.00 | 0.00 | 0.00 | 34 | 1021.4 |
| 20260507000647 | 57 | 76 | 5.0 | 8.0 | 0.00 | 0.00 | 0.00 | 34 | 1021.4 |
| 20260507000149 | 57 | 46 | 3.0 | 7.0 | 0.00 | 0.00 | 0.00 | 34 | 1021.4 |
| 20260506235646 | 57 | 5 | 4.0 | 7.0 | 0.00 | 0.00 | 0.00 | 34 | 1021.4 |
| 20260506235204 | 57 | 41 | 3.0 | 6.0 | 0.00 | 0.00 | 0.00 | 35 | 1021.3 |
| 20260506234641 | 57 | 18 | 3.0 | 5.0 | 0.00 | 0.00 | 0.00 | 35 | 1021.2 |
| 20260506234140 | 57 | 65 | 2.0 | 5.0 | 0.00 | 0.00 | 0.00 | 36 | 1021.2 |
| 20260506233637 | 57 | 32 | 3.0 | 7.0 | 0.00 | 0.00 | 0.00 | 37 | 1021.2 |
| 20260506233156 | 57 | 356 | 2.0 | 7.0 | 0.00 | 0.00 | 0.00 | 38 | 1021.2 |
| 20260506232653 | 57 | 45 | 4.0 | 7.0 | 0.00 | 0.00 | 0.00 | 37 | 1021.3 |
| 20260506232151 | 57 | 20 | 3.0 | 7.0 | 0.00 | 0.00 | 0.00 | 39 | 1021.2 |
| 20260506231648 | 57 | 92 | 2.0 | 8.0 | 0.00 | 0.00 | 0.00 | 38 | 1021.2 |
| 20260506231206 | 57 | 344 | 4.0 | 8.0 | 0.00 | 0.00 | 0.00 | 40 | 1021.3 |
| 20260506230643 | 57 | 63 | 3.0 | 9.0 | 0.00 | 0.00 | 0.00 | 40 | 1021.2 |
| 20260506230141 | 57 | 50 | 4.0 | 9.0 | 0.00 | 0.00 | 0.00 | 39 | 1021.4 |
| 20260506225639 | 57 | 60 | 4.0 | 7.0 | 0.00 | 0.00 | 0.00 | 38 | 1021.2 |
| 20260506225137 | 57 | 41 | 4.0 | 7.0 | 0.00 | 0.00 | 0.00 | 39 | 1021.3 |
| 20260506224654 | 57 | 356 | 3.0 | 6.0 | 0.00 | 0.00 | 0.00 | 38 | 1021.3 |
| 20260506224153 | 57 | 49 | 3.0 | 5.0 | 0.00 | 0.00 | 0.00 | 37 | 1021.3 |
| 20260506223654 | 57 | 50 | 1.0 | 8.0 | 0.00 | 0.00 | 0.00 | 40 | 1021.4 |
| 20260506223213 | 57 | 44 | 4.0 | 8.0 | 0.00 | 0.00 | 0.00 | 39 | 1021.4 |
| 20260506222649 | 57 | 44 | 1.0 | 8.0 | 0.00 | 0.00 | 0.00 | 37 | 1021.5 |
| 20260506222147 | 57 | 39 | 1.0 | 8.0 | 0.00 | 0.00 | 0.00 | 40 | 1021.5 |
| 20260506221645 | 57 | 39 | 2.0 | 8.0 | 0.00 | 0.00 | 0.00 | 38 | 1021.5 |
| 20260506221143 | 57 | 67 | 3.0 | 7.0 | 0.00 | 0.00 | 0.00 | 36 | 1021.6 |
| 20260506220641 | 57 | 60 | 3.0 | 7.0 | 0.00 | 0.00 | 0.00 | 36 | 1021.7 |
| 20260506220139 | 57 | 46 | 3.0 | 6.0 | 0.00 | 0.00 | 0.00 | 40 | 1021.7 |
| 20260506215638 | 56 | 46 | 2.0 | 7.0 | 0.00 | 0.00 | 0.00 | 41 | 1021.7 |
| 20260506215157 | 56 | 61 | 3.0 | 7.0 | 0.00 | 0.00 | 0.00 | 41 | 1021.7 |
| 20260506214655 | 56 | 360 | 3.0 | 6.0 | 0.00 | 0.00 | 0.00 | 41 | 1021.8 |
| 20260506214153 | 57 | 44 | 2.0 | 7.0 | 0.00 | 0.00 | 0.00 | 40 | 1021.8 |
| 20260506213649 | 57 | 65 | 4.0 | 7.0 | 0.00 | 0.00 | 0.00 | 39 | 1021.9 |
| 20260506213147 | 57 | 44 | 3.0 | 8.0 | 0.00 | 0.00 | 0.00 | 40 | 1021.8 |
| 20260506212645 | 57 | 35 | 4.0 | 8.0 | 0.00 | 0.00 | 0.00 | 39 | 1021.9 |
| 20260506212147 | 57 | 51 | 1.0 | 8.0 | 0.00 | 0.00 | 0.00 | 38 | 1021.9 |
| 20260506211644 | 57 | 129 | 3.0 | 8.0 | 0.00 | 0.00 | 0.00 | 39 | 1021.8 |
| 20260506211203 | 56 | 98 | 5.0 | 11.0 | 0.00 | 0.00 | 0.00 | 39 | 1021.8 |
| 20260506210639 | 56 | 334 | 4.0 | 11.0 | 0.00 | 0.00 | 0.00 | 39 | 1021.9 |
| 20260506210157 | 56 | 49 | 4.0 | 10.0 | 0.00 | 0.00 | 0.00 | 40 | 1021.9 |
| 20260506205717 | 57 | 56 | 2.0 | 7.0 | 0.00 | 0.00 | 0.00 | 40 | 1021.9 |
| 20260506205154 | 57 | 57 | 3.0 | 7.0 | 0.00 | 0.00 | 0.00 | 40 | 1021.7 |
| 20260506204652 | 57 | 49 | 4.0 | 6.0 | 0.00 | 0.00 | 0.00 | 39 | 1021.9 |
| 20260506204151 | 57 | 69 | 2.0 | 6.0 | 0.00 | 0.00 | 0.00 | 40 | 1021.8 |
| 20260506203649 | 57 | 8 | 3.0 | 7.0 | 0.00 | 0.00 | 0.00 | 40 | 1021.8 |
| 20260506203147 | 57 | 70 | 4.0 | 7.0 | 0.00 | 0.00 | 0.00 | 40 | 1021.7 |
| 20260506202644 | 56 | 15 | 4.0 | 7.0 | 0.00 | 0.00 | 0.00 | 40 | 1021.8 |
| 20260506202142 | 56 | 49 | 3.0 | 7.0 | 0.00 | 0.00 | 0.00 | 40 | 1021.7 |
| 20260506201640 | 56 | 46 | 4.0 | 9.0 | 0.00 | 0.00 | 0.00 | 41 | 1021.8 |
| 20260506201138 | 56 | 63 | 3.0 | 9.0 | 0.00 | 0.00 | 0.00 | 41 | 1021.8 |
| 20260506200656 | 56 | 46 | 4.0 | 7.0 | 0.00 | 0.00 | 0.00 | 40 | 1021.8 |
| 20260506200214 | 56 | 42 | 3.0 | 6.0 | 0.00 | 0.00 | 0.00 | 41 | 1021.8 |
| 20260506195651 | 57 | 45 | 3.0 | 7.0 | 0.00 | 0.00 | 0.00 | 41 | 1021.9 |
| 20260506195153 | 56 | 104 | 3.0 | 7.0 | 0.00 | 0.00 | 0.00 | 42 | 1021.9 |
| 20260506194650 | 56 | 15 | 2.0 | 7.0 | 0.00 | 0.00 | 0.00 | 41 | 1021.8 |
| 20260506194149 | 56 | 44 | 3.0 | 7.0 | 0.00 | 0.00 | 0.00 | 41 | 1021.8 |
| 20260506193647 | 56 | 53 | 2.0 | 7.0 | 0.00 | 0.00 | 0.00 | 42 | 1021.8 |
| 20260506193145 | 56 | 47 | 2.0 | 6.0 | 0.00 | 0.00 | 0.00 | 41 | 1021.9 |
| 20260506192642 | 56 | 72 | 4.0 | 6.0 | 0.00 | 0.00 | 0.00 | 41 | 1021.8 |
| 20260506192139 | 56 | 53 | 1.0 | 8.0 | 0.00 | 0.00 | 0.00 | 42 | 1021.7 |
| 20260506191657 | 56 | 63 | 4.0 | 8.0 | 0.00 | 0.00 | 0.00 | 41 | 1021.7 |
| 20260506191155 | 56 | 55 | 2.0 | 6.0 | 0.00 | 0.00 | 0.00 | 41 | 1021.8 |
| 20260506190712 | 56 | 347 | 2.0 | 7.0 | 0.00 | 0.00 | 0.00 | 41 | 1021.9 |
| 20260506190149 | 56 | 78 | 3.0 | 7.0 | 0.00 | 0.00 | 0.00 | 40 | 1021.7 |
| 20260506185647 | 56 | 63 | 2.0 | 8.0 | 0.00 | 0.00 | 0.00 | 41 | 1021.7 |
| 20260506185145 | 56 | 49 | 2.0 | 8.0 | 0.00 | 0.00 | 0.00 | 41 | 1021.7 |
| 20260506184702 | 55 | 70 | 3.0 | 10.0 | 0.00 | 0.00 | 0.00 | 42 | 1021.7 |
| 20260506184140 | 56 | 29 | 3.0 | 10.0 | 0.00 | 0.00 | 0.00 | 41 | 1021.7 |
| 20260506183657 | 56 | 343 | 3.0 | 6.0 | 0.00 | 0.00 | 0.00 | 42 | 1021.8 |
| 20260506183154 | 56 | 56 | 2.0 | 8.0 | 0.00 | 0.00 | 0.00 | 42 | 1021.7 |
| 20260506182656 | 55 | 34 | 4.0 | 8.0 | 0.00 | 0.00 | 0.00 | 41 | 1021.8 |
| 20260506182214 | 55 | 84 | 2.0 | 6.0 | 0.00 | 0.00 | 0.00 | 42 | 1021.7 |
| 20260506181651 | 56 | 64 | 4.0 | 6.0 | 0.00 | 0.00 | 0.00 | 40 | 1021.7 |
| 20260506181148 | 56 | 48 | 4.0 | 7.0 | 0.00 | 0.00 | 0.00 | 41 | 1021.7 |
| 20260506180647 | 55 | 46 | 4.0 | 9.0 | 0.00 | 0.00 | 0.00 | 42 | 1021.6 |
| 20260506180145 | 55 | 43 | 3.0 | 9.0 | 0.00 | 0.00 | 0.00 | 42 | 1021.7 |
| 20260506175704 | 55 | 79 | 3.0 | 8.0 | 0.00 | 0.00 | 0.00 | 41 | 1021.7 |
| 20260506175142 | 55 | 47 | 3.0 | 8.0 | 0.00 | 0.00 | 0.00 | 43 | 1021.6 |
| 20260506174640 | 55 | 68 | 4.0 | 8.0 | 0.00 | 0.00 | 0.00 | 42 | 1021.4 |
| 20260506174157 | 54 | 355 | 4.0 | 8.0 | 0.00 | 0.00 | 0.00 | 44 | 1021.5 |
| 20260506173655 | 54 | 51 | 3.0 | 7.0 | 0.00 | 0.00 | 0.00 | 44 | 1021.5 |
| 20260506173213 | 55 | 50 | 2.0 | 6.0 | 0.00 | 0.00 | 0.00 | 43 | 1021.4 |
| 20260506172710 | 54 | 83 | 3.0 | 8.0 | 0.00 | 0.00 | 0.00 | 44 | 1021.3 |
| 20260506172146 | 54 | 42 | 3.0 | 8.0 | 0.00 | 0.00 | 0.00 | 44 | 1021.3 |
| 20260506171644 | 54 | 37 | 4.0 | 7.0 | 0.00 | 0.00 | 0.00 | 45 | 1021.3 |
| 20260506170646 | 53 | 51 | 5.0 | 8.0 | 0.00 | 0.00 | 0.00 | 46 | 1021.2 |
| 20260506170204 | 53 | 56 | 3.0 | 8.0 | 0.00 | 0.00 | 0.00 | 44 | 1021.1 |
| 20260506165643 | 53 | 34 | 3.0 | 8.0 | 0.00 | 0.00 | 0.00 | 44 | 1021.1 |
| 20260506165201 | 53 | 61 | 4.0 | 7.0 | 0.00 | 0.00 | 0.00 | 43 | 1021.0 |
| 20260506164642 | 54 | 37 | 4.0 | 6.0 | 0.00 | 0.00 | 0.00 | 43 | 1020.9 |
| 20260506164140 | 54 | 50 | 2.0 | 6.0 | 0.00 | 0.00 | 0.00 | 44 | 1020.9 |
| 20260506163658 | 53 | 71 | 2.0 | 6.0 | 0.00 | 0.00 | 0.00 | 42 | 1020.9 |
| 20260506163155 | 53 | 30 | 2.0 | 6.0 | 0.00 | 0.00 | 0.00 | 42 | 1020.8 |
| 20260506162653 | 53 | 44 | 3.0 | 7.0 | 0.00 | 0.00 | 0.00 | 43 | 1020.7 |
| 20260506162150 | 53 | 50 | 3.0 | 7.0 | 0.00 | 0.00 | 0.00 | 43 | 1020.7 |
| 20260506161709 | 52 | 48 | 3.0 | 7.0 | 0.00 | 0.00 | 0.00 | 41 | 1020.7 |
| 20260506161146 | 53 | 42 | 3.0 | 6.0 | 0.00 | 0.00 | 0.00 | 42 | 1020.7 |
| 20260506160644 | 53 | 34 | 3.0 | 5.0 | 0.00 | 0.00 | 0.00 | 41 | 1020.7 |
| 20260506160141 | 52 | 34 | 3.0 | 4.0 | 0.00 | 0.00 | 0.00 | 41 | 1020.7 |
| 20260506155659 | 53 | 64 | 1.0 | 3.0 | 0.00 | 0.01 | 0.00 | 40 | 1020.6 |
| 20260506155156 | 53 | 90 | 1.0 | 6.0 | 0.00 | 0.01 | 0.00 | 41 | 1020.6 |
| 20260506154654 | 52 | 79 | 2.0 | 6.0 | 0.00 | 0.01 | 0.00 | 40 | 1020.5 |
| 20260506154154 | 52 | 48 | 2.0 | 5.0 | 0.00 | 0.01 | 0.00 | 40 | 1020.4 |
| 20260506153651 | 52 | 34 | 1.0 | 3.0 | 0.00 | 0.01 | 0.00 | 40 | 1020.5 |
| 20260506153148 | 52 | 48 | 2.0 | 3.0 | 0.00 | 0.01 | 0.00 | 39 | 1020.5 |
| 20260506152650 | 53 | 69 | 1.0 | 2.0 | 0.00 | 0.01 | 0.00 | 39 | 1020.4 |
| 20260506152147 | 52 | 74 | 1.0 | 2.0 | 0.00 | 0.01 | 0.00 | 39 | 1020.4 |
| 20260506151645 | 52 | 60 | 1.0 | 3.0 | 0.00 | 0.01 | 0.00 | 38 | 1020.4 |
| 20260506151204 | 51 | 60 | 1.0 | 3.0 | 0.00 | 0.01 | 0.00 | 38 | 1020.4 |
| 20260506150640 | 51 | 79 | 1.0 | 3.0 | 0.00 | 0.01 | 0.00 | 39 | 1020.4 |
| 20260506150219 | 51 | 47 | 2.0 | 3.0 | 0.00 | 0.01 | 0.00 | 38 | 1020.2 |
| 20260506145656 | 52 | 60 | 1.0 | 3.0 | 0.00 | 0.01 | 0.00 | 39 | 1020.2 |
| 20260506145154 | 52 | 60 | 1.0 | 2.0 | 0.00 | 0.01 | 0.00 | 38 | 1020.2 |
| 20260506144652 | 51 | 57 | 0.0 | 2.0 | 0.00 | 0.01 | 0.00 | 40 | 1020.3 |
| 20260506144210 | 51 | 99 | 0.0 | 1.0 | 0.00 | 0.01 | 0.00 | 39 | 1020.1 |
| 20260506143648 | 50 | 70 | 0.0 | 1.0 | 0.00 | 0.01 | 0.00 | 40 | 1020.1 |
| 20260506143146 | 50 | 87 | 0.0 | 1.0 | 0.00 | 0.01 | 0.00 | 42 | 1020.0 |
| 20260506142643 | 49 | 89 | 0.0 | 1.0 | 0.00 | 0.01 | 0.00 | 44 | 1019.9 |
| 20260506142141 | 48 | 75 | 0.0 | 1.0 | 0.00 | 0.01 | 0.00 | 44 | 1019.9 |
| 20260506141657 | 48 | 73 | 0.0 | 1.0 | 0.00 | 0.01 | 0.00 | 44 | 1019.8 |
| 20260506141155 | 47 | 221 | 0.0 | 1.0 | 0.00 | 0.01 | 0.00 | 46 | 1019.7 |
| 20260506140714 | 47 | 221 | 0.0 | 0.0 | 0.00 | 0.01 | 0.00 | 47 | 1019.7 |
| 20260506140151 | 45 | 221 | 0.0 | 0.0 | 0.00 | 0.01 | 0.00 | 50 | 1019.6 |
| 20260506135649 | 44 | 221 | 0.0 | 0.0 | 0.00 | 0.01 | 0.00 | 52 | 1019.5 |
| 20260506135151 | 43 | 221 | 0.0 | 0.0 | 0.00 | 0.01 | 0.00 | 53 | 1019.4 |
| 20260506134649 | 43 | 221 | 0.0 | 1.0 | 0.00 | 0.01 | 0.00 | 53 | 1019.3 |
| 20260506134145 | 42 | 221 | 0.0 | 1.0 | 0.00 | 0.01 | 0.00 | 53 | 1019.2 |
| 20260506133658 | 42 | 221 | 0.0 | 0.0 | 0.00 | 0.01 | 0.00 | 53 | 1019.2 |
| 20260506133156 | 41 | 221 | 0.0 | 0.0 | 0.00 | 0.01 | 0.00 | 53 | 1019.1 |
| 20260506132653 | 41 | 221 | 0.0 | 1.0 | 0.00 | 0.01 | 0.00 | 53 | 1019.1 |
| 20260506132150 | 40 | 221 | 0.0 | 1.0 | 0.00 | 0.01 | 0.00 | 53 | 1019.1 |
| 20260506131648 | 40 | 204 | 0.0 | 1.0 | 0.00 | 0.01 | 0.00 | 54 | 1019.0 |
| 20260506131146 | 39 | 204 | 0.0 | 1.0 | 0.00 | 0.01 | 0.00 | 54 | 1018.9 |
| 20260506130644 | 39 | 229 | 0.0 | 0.0 | 0.00 | 0.01 | 0.00 | 55 | 1018.9 |
| 20260506130140 | 39 | 229 | 0.0 | 0.0 | 0.00 | 0.01 | 0.00 | 55 | 1018.7 |
| 20260506125658 | 38 | 229 | 0.0 | 0.0 | 0.00 | 0.01 | 0.00 | 56 | 1018.7 |
| 20260506125155 | 38 | 229 | 0.0 | 1.0 | 0.00 | 0.01 | 0.00 | 56 | 1018.7 |
| 20260506124713 | 38 | 229 | 0.0 | 0.0 | 0.00 | 0.01 | 0.00 | 55 | 1018.6 |
| 20260506124151 | 38 | 229 | 0.0 | 1.0 | 0.00 | 0.01 | 0.00 | 55 | 1018.5 |
| 20260506123648 | 38 | 229 | 0.0 | 1.0 | 0.00 | 0.01 | 0.00 | 55 | 1018.5 |
| 20260506123148 | 38 | 229 | 0.0 | 1.0 | 0.00 | 0.01 | 0.00 | 55 | 1018.4 |
| 20260506122646 | 38 | 229 | 0.0 | 1.0 | 0.00 | 0.01 | 0.00 | 55 | 1018.4 |
| 20260506122145 | 38 | 224 | 0.0 | 1.0 | 0.00 | 0.01 | 0.00 | 55 | 1018.3 |
| 20260506121642 | 37 | 224 | 0.0 | 0.0 | 0.00 | 0.01 | 0.00 | 55 | 1018.3 |
| 20260506121159 | 38 | 224 | 0.0 | 0.0 | 0.00 | 0.01 | 0.00 | 55 | 1018.3 |
| 20260506120656 | 38 | 224 | 0.0 | 0.0 | 0.00 | 0.01 | 0.00 | 54 | 1018.2 |
| 20260506120155 | 38 | 224 | 0.0 | 0.0 | 0.00 | 0.01 | 0.00 | 54 | 1018.2 |
| 20260506115654 | 37 | 224 | 0.0 | 0.0 | 0.00 | 0.01 | 0.00 | 54 | 1018.1 |
| 20260506115152 | 37 | 224 | 0.0 | 0.0 | 0.00 | 0.01 | 0.00 | 55 | 1018.2 |
| 20260506114650 | 36 | 224 | 0.0 | 1.0 | 0.00 | 0.01 | 0.00 | 57 | 1018.1 |
| 20260506114209 | 36 | 224 | 0.0 | 1.0 | 0.00 | 0.01 | 0.00 | 58 | 1018.1 |
| 20260506113645 | 35 | 224 | 0.0 | 1.0 | 0.00 | 0.01 | 0.00 | 58 | 1018.1 |
| 20260506113203 | 35 | 224 | 0.0 | 1.0 | 0.00 | 0.01 | 0.00 | 59 | 1018.0 |
| 20260506112701 | 36 | 222 | 0.0 | 0.0 | 0.00 | 0.01 | 0.00 | 57 | 1018.1 |
| 20260506112159 | 37 | 222 | 0.0 | 0.0 | 0.00 | 0.01 | 0.00 | 55 | 1018.0 |
| 20260506111656 | 37 | 222 | 0.0 | 0.0 | 0.00 | 0.01 | 0.00 | 54 | 1017.9 |
| 20260506111155 | 37 | 223 | 0.0 | 0.0 | 0.00 | 0.01 | 0.00 | 54 | 1017.8 |
| 20260506110656 | 37 | 223 | 0.0 | 0.0 | 0.00 | 0.01 | 0.00 | 54 | 1017.8 |
| 20260506110154 | 37 | 222 | 0.0 | 0.0 | 0.00 | 0.01 | 0.00 | 54 | 1017.7 |
| 20260506105654 | 37 | 223 | 0.0 | 1.0 | 0.00 | 0.01 | 0.00 | 55 | 1017.6 |
| 20260506105152 | 36 | 223 | 0.0 | 1.0 | 0.00 | 0.01 | 0.00 | 55 | 1017.6 |
| 20260506104650 | 36 | 222 | 0.0 | 0.0 | 0.00 | 0.01 | 0.00 | 56 | 1017.6 |
| 20260506104209 | 36 | 223 | 0.0 | 0.0 | 0.00 | 0.01 | 0.00 | 56 | 1017.6 |
| 20260506103646 | 36 | 222 | 0.0 | 1.0 | 0.00 | 0.01 | 0.00 | 56 | 1017.6 |
| 20260506103203 | 37 | 223 | 0.0 | 1.0 | 0.00 | 0.01 | 0.00 | 55 | 1017.6 |
| 20260506102700 | 37 | 223 | 0.0 | 0.0 | 0.00 | 0.01 | 0.00 | 54 | 1017.7 |
| 20260506102157 | 37 | 222 | 0.0 | 0.0 | 0.00 | 0.01 | 0.00 | 54 | 1017.6 |
| 20260506101715 | 37 | 222 | 0.0 | 0.0 | 0.00 | 0.01 | 0.00 | 54 | 1017.4 |
| 20260506101152 | 37 | 223 | 0.0 | 0.0 | 0.00 | 0.01 | 0.00 | 54 | 1017.5 |
| 20260506100651 | 36 | 223 | 0.0 | 0.0 | 0.00 | 0.01 | 0.00 | 55 | 1017.4 |
| 20260506100149 | 36 | 223 | 0.0 | 1.0 | 0.00 | 0.01 | 0.00 | 56 | 1017.4 |
| 20260506095648 | 35 | 222 | 0.0 | 1.0 | 0.00 | 0.01 | 0.00 | 58 | 1017.4 |
| 20260506095146 | 35 | 223 | 0.0 | 1.0 | 0.00 | 0.01 | 0.00 | 65 | 1017.4 |
| 20260506094643 | 36 | 222 | 0.0 | 0.0 | 0.00 | 0.01 | 0.00 | 61 | 1017.4 |
| 20260506094145 | 37 | 195 | 0.0 | 0.0 | 0.00 | 0.01 | 0.00 | 60 | 1017.4 |
| 20260506093643 | 37 | 195 | 0.0 | 0.0 | 0.00 | 0.01 | 0.00 | 53 | 1017.4 |
| 20260506093201 | 37 | 195 | 0.0 | 0.0 | 0.00 | 0.01 | 0.00 | 52 | 1017.3 |
| 20260506092720 | 37 | 195 | 0.0 | 0.0 | 0.00 | 0.01 | 0.00 | 53 | 1017.3 |
| 20260506092155 | 37 | 195 | 0.0 | 0.0 | 0.00 | 0.01 | 0.00 | 52 | 1017.3 |
| 20260506091653 | 37 | 195 | 0.0 | 0.0 | 0.00 | 0.01 | 0.00 | 52 | 1017.4 |
| 20260506091151 | 37 | 195 | 0.0 | 0.0 | 0.00 | 0.01 | 0.00 | 53 | 1017.4 |
| 20260506090649 | 37 | 195 | 0.0 | 0.0 | 0.00 | 0.01 | 0.00 | 54 | 1017.4 |
| 20260506090147 | 37 | 195 | 0.0 | 0.0 | 0.00 | 0.01 | 0.00 | 57 | 1017.4 |
| 20260506085707 | 37 | 195 | 0.0 | 1.0 | 0.00 | 0.01 | 0.00 | 59 | 1017.5 |
| 20260506085143 | 36 | 195 | 0.0 | 1.0 | 0.00 | 0.01 | 0.00 | 61 | 1017.4 |
| 20260506084716 | 36 | 214 | 0.0 | 1.0 | 0.00 | 0.01 | 0.00 | 63 | 1017.5 |
| 20260506084152 | 36 | 214 | 0.0 | 1.0 | 0.00 | 0.01 | 0.00 | 64 | 1017.4 |
| 20260506083710 | 37 | 214 | 0.0 | 1.0 | 0.00 | 0.01 | 0.00 | 65 | 1017.4 |
| 20260506083207 | 36 | 214 | 0.0 | 1.0 | 0.00 | 0.01 | 0.00 | 66 | 1017.5 |
| 20260506082201 | 36 | 214 | 0.0 | 0.0 | 0.00 | 0.01 | 0.00 | 69 | 1017.5 |
| 20260506081659 | 36 | 214 | 0.0 | 0.0 | 0.00 | 0.01 | 0.00 | 70 | 1017.6 |
| 20260506081150 | 35 | 214 | 0.0 | 0.0 | 0.00 | 0.01 | 0.00 | 72 | 1017.6 |
| 20260506080648 | 35 | 214 | 0.0 | 1.0 | 0.00 | 0.01 | 0.00 | 74 | 1017.5 |
| 20260506080145 | 35 | 214 | 0.0 | 1.0 | 0.00 | 0.01 | 0.00 | 74 | 1017.5 |
| 20260506073158 | 36 | 214 | 0.0 | 0.0 | 0.00 | 0.01 | 0.00 | 71 | 1017.5 |
| 20260506072655 | 36 | 214 | 0.0 | 1.0 | 0.00 | 0.01 | 0.00 | 71 | 1017.4 |
| 20260506072152 | 36 | 214 | 0.0 | 1.0 | 0.00 | 0.01 | 0.00 | 71 | 1017.5 |
| 20260506071648 | 35 | 214 | 0.0 | 1.0 | 0.00 | 0.01 | 0.00 | 73 | 1017.4 |
| 20260506071143 | 34 | 214 | 0.0 | 1.0 | 0.00 | 0.01 | 0.00 | 75 | 1017.4 |
| 20260506070701 | 33 | 214 | 0.0 | 0.0 | 0.00 | 0.01 | 0.00 | 77 | 1017.4 |
| 20260506070220 | 33 | 214 | 0.0 | 0.0 | 0.00 | 0.01 | 0.00 | 78 | 1017.4 |